Ohio State University, OH

12:13 AM EDT on July 24, 2017 (GMT -0400)
Ohio State University

Weather History for KOSU - October, 2012

Change the Weather History Date:

Saturday, October 6, 2012

  Actual Average Record
Temperature  
Mean Temperature 47 °F -  
Max Temperature 57 °F 67 °F 87 °F (2007)
Min Temperature 37 °F 44 °F 35 °F (2001)
Degree Days  
Heating Degree Days 18    
Moisture  
Dew Point 39 °F    
Average Humidity 79    
Maximum Humidity 100    
Minimum Humidity 39    
Precipitation  
Precipitation 0.45 in - - ()
Sea Level Pressure  
Sea Level Pressure 30.05 in    
Wind  
Wind Speed 9 mph (NW)    
Max Wind Speed 15 mph    
Max Gust Speed 21 mph    
Visibility 8 miles    
Events Rain    
Averages and records for this station are not official NWS values.
T = Trace of Precipitation, MM = Missing Value Source: NWS Daily Summary

Daily Weather History Graph

Daily Weather History Graph

Search for Another Location

Airport or City:

Trip Planner

Search our weather history database for the weather conditions in past years. The results will help you decide how hot, cold, wet, or windy it might be!

Date:

Astronomy

Oct. 06, 2012 Rise Set
Actual Time 7:34 AM EDT 7:05 PM EDT
Civil Twilight 7:06 AM EDT 7:32 PM EDT
Nautical Twilight 6:35 AM EDT 8:04 PM EDT
Astronomical Twilight 6:04 AM EDT 8:35 PM EDT
Moon 11:20 PM EDT (10/6) 1:27 PM EDT (10/6)
Length of Visible Light 12h 25m
Length of Day
11h 31m
Waning Gibbous, 65% of the Moon is Illuminated
Oct 6
Waning Gibbous
Oct 8
Last Quarter
Oct 15
New
Oct 21
First Quarter
Oct 29
Full

Hourly Weather History & Observations

Time (EDT) Temp. Windchill Dew Point Humidity Pressure Visibility Wind Dir Wind Speed Gust Speed Precip Events Conditions
12:25 AM 46.4 °F 41.5 °F 44.6 °F 93% 29.99 in 6.0 mi NW 10.4 mph - 0.02 in Rain Light Rain
12:53 AM 46.0 °F 40.6 °F 44.1 °F 93% 29.98 in 9.0 mi NNW 11.5 mph - 0.04 in Rain Light Rain
1:03 AM 44.6 °F 38.8 °F 44.6 °F 100% 29.99 in 5.0 mi NW 11.5 mph - 0.02 in Rain Rain
1:24 AM 44.6 °F 40.7 °F 44.6 °F 100% 29.99 in 3.0 mi NNW 6.9 mph - 0.06 in Rain Heavy Rain
1:33 AM 44.6 °F 40.2 °F 44.6 °F 100% 30.00 in 3.0 mi NW 8.1 mph - 0.11 in Rain Heavy Rain
1:39 AM 44.6 °F 40.2 °F 44.6 °F 100% 30.00 in 2.0 mi NW 8.1 mph - 0.15 in Rain Heavy Rain
1:46 AM 44.6 °F 40.7 °F 44.6 °F 100% 30.00 in 2.5 mi NW 6.9 mph - 0.19 in Rain Heavy Rain
1:53 AM 44.1 °F 39.5 °F 43.0 °F 96% 30.00 in 3.0 mi NW 8.1 mph - 0.23 in Rain Heavy Rain
2:02 AM 44.6 °F 38.8 °F 42.8 °F 93% 30.01 in 4.0 mi NW 11.5 mph - 0.02 in Rain Rain
2:06 AM 44.6 °F 40.2 °F 42.8 °F 93% 30.01 in 5.0 mi NW 8.1 mph - 0.03 in Rain Light Rain
2:53 AM 43.0 °F 38.8 °F 42.1 °F 97% 29.99 in 7.0 mi NNW 6.9 mph - 0.18 in Rain Light Rain
3:27 AM 42.8 °F 40.1 °F 42.8 °F 100% 30.00 in 10.0 mi WNW 4.6 mph - 0.00 in   Overcast
3:53 AM 44.1 °F 40.1 °F 42.1 °F 93% 30.00 in 10.0 mi WNW 6.9 mph - 0.00 in   Overcast
4:03 AM 42.8 °F 37.5 °F 42.8 °F 100% 30.01 in 10.0 mi WNW 9.2 mph - N/A   Overcast
4:53 AM 43.0 °F 38.2 °F 42.1 °F 97% 30.01 in 10.0 mi WNW 8.1 mph - N/A   Overcast
5:53 AM 42.1 °F 36.6 °F 39.0 °F 89% 30.03 in 10.0 mi West 9.2 mph - N/A   Scattered Clouds
6:53 AM 39.0 °F 34.0 °F 37.9 °F 96% 30.05 in 10.0 mi West 6.9 mph - N/A   Partly Cloudy
7:53 AM 37.9 °F 33.5 °F 37.0 °F 97% 30.07 in 10.0 mi West 5.8 mph - N/A   Clear
8:53 AM 41.0 °F 34.7 °F 37.0 °F 86% 30.09 in 10.0 mi West 10.4 mph - N/A   Clear
10:53 AM 48.0 °F - 39.0 °F 71% 30.12 in 10.0 mi West 8.1 mph - N/A   Clear
11:53 AM 50.0 °F - 37.9 °F 63% 30.11 in 10.0 mi WNW 8.1 mph - N/A   Scattered Clouds
12:53 PM 53.1 °F - 37.0 °F 55% 30.10 in 10.0 mi West 15.0 mph 20.7 mph N/A   Partly Cloudy
1:53 PM 54.0 °F - 36.0 °F 51% 30.08 in 10.0 mi West 6.9 mph - N/A   Clear
2:53 PM 55.9 °F - 34.0 °F 44% 30.07 in 10.0 mi West 12.7 mph 17.3 mph N/A   Clear
3:53 PM 55.9 °F - 32.0 °F 40% 30.06 in 10.0 mi NW 12.7 mph - N/A   Clear
4:53 PM 57.0 °F - 32.0 °F 39% 30.05 in 10.0 mi NW 10.4 mph - N/A   Clear
5:53 PM 55.0 °F - 30.9 °F 40% 30.06 in 10.0 mi NW 11.5 mph - N/A   Clear
7:53 PM 48.9 °F - 34.0 °F 56% 30.11 in 10.0 mi NW 4.6 mph - N/A   Clear
8:53 PM 48.0 °F - 35.1 °F 61% 30.13 in 10.0 mi NW 5.8 mph - N/A   Clear
9:53 PM 46.9 °F - 35.1 °F 63% 30.14 in 10.0 mi NNW 8.1 mph - N/A   Clear
10:53 PM 46.0 °F 41.9 °F 35.1 °F 66% 30.14 in 10.0 mi North 8.1 mph - N/A   Clear
11:53 PM 44.1 °F 40.8 °F 34.0 °F 68% 30.14 in 10.0 mi NNW 5.8 mph - N/A   Clear